Location: Kerentrech
(47.7567°N, 3.3595°W)
Time: 09:10:56
(UTC+00:00)

USA 229 DEB - Pass Details

Date: 17 February 2020
Orbit: 988 x 1224 km, 63.4° (Epoch: 26 March)

Event Time Altitude Azimuth Distance (km) Brightness Sun altitude
Exits shadow 05:23:23 30° 256° (WSW) 1,964 4.5 -19.7°
Maximum altitude 05:24:01 31° 247° (WSW) 1,952 4.5 -19.6°
Drops below altitude 10° 05:30:25 10° 189° (S) 3,150 6.0 -18.5°
Sets 05:33:33 0° 179° (S) 4,125 6.8 -18.0°
